Flag for Germany Weather past 2 weeks in Haltern am See, North Rhine-Westphalia, Germany

Now
69 °F

Clear.


Feels Like: 69 °F
Forecast: 67 / 87 °F
Wind: 1 mph from Northeast

Location: Muenster / Osnabrueck

Current Time: Jul 4, 2015 at 4:28:57 AM

Latest Report: Jul 4, 2015 at 4:00 AM


Visibility: 7 mi

Pressure: 30.12 "Hg

Humidity: 90%

Dew point: 66 °F

Location of Haltern am SeeLocation

Historic Weather in Haltern am See — Graph

°F

Haltern am See temperature yesterday

Maximum temperature yesterday: 87 °F (at 6:00 PM)
Minimum temperature yesterday: 67 °F (at 7:00 AM)
Average temperature yesterday: 78 °F

Past Weeks' High & Low Weather Summary

 TemperatureHumidityPressure
High98 °F (Jul 2, 5:00 PM)97% (Jun 22, 1:00 AM)30.26 "Hg (Jun 22, 1:00 AM)
Low46 °F (Jun 23, 6:00 AM)25% (Jul 2, 5:00 PM)29.68 "Hg (Jun 22, 9:00 PM)
Average65 °F68%30.07 "Hg
* Reported Jun 19 3:00 AM — Jul 4 3:00 AM, Haltern am See, Weather by CustomWeather, © 2015

Note: Actual official high and low records may vary slightly from our data, if they occured in-between our weather recording intervals... More about our weather records

Advertising

Haltern am See weather history for previous 24 hours

 ConditionsComfort  
Time TempWeatherWind HumidityBarometerVisibility
3:00 AM
Sat, Jul 4
70 °FPassing clouds.2 mph88%30.14 "Hg8 mi
2:00 AM70 °FPassing clouds.1 mph89%30.17 "Hg9 mi
1:00 AM72 °FPassing clouds.1 mph83%30.18 "Hg12 mi
12:00 AM74 °FPassing clouds.1 mph81%30.19 "Hg12 mi
11:00 PM
Fri, Jul 3
76 °FPassing clouds.2 mph77%30.20 "Hg12 mi
10:00 PM79 °FPassing clouds.3 mph67%30.20 "Hg12 mi
9:00 PM83 °FPassing clouds.2 mph59%30.20 "Hg16 mi
8:00 PM85 °FPassing clouds.6 mph54%30.18 "Hg19 mi
7:00 PM86 °FPassing clouds.5 mph50%30.19 "Hg19 mi
6:00 PM87 °FPassing clouds.6 mph48%30.20 "Hg19 mi
5:00 PM86 °FPassing clouds.6 mph48%30.21 "Hg19 mi
4:00 PM86 °FPassing clouds.3 mph48%30.22 "Hg19 mi
3:00 PM86 °FPassing clouds.3 mph49%30.22 "Hg19 mi
2:00 PM84 °FPassing clouds.3 mph48%30.23 "Hg22 mi
1:00 PM82 °FPassing clouds.3 mph54%30.25 "Hg19 mi
12:00 PM81 °FPassing clouds.2 mph57%30.26 "Hg16 mi
11:00 AM79 °FPassing clouds.1 mph61%30.26 "Hg16 mi
10:00 AM76 °FPassing clouds.1 mph67%30.26 "Hg12 mi
9:00 AM73 °FScattered clouds.2 mph74%30.25 "Hg11 mi
8:00 AM70 °FScattered clouds.No wind85%30.25 "Hg9 mi
7:00 AM67 °FPartly sunny.No wind92%30.24 "Hg9 mi
6:00 AM68 °FThunderstorms. Overcast.1 mph91%30.22 "Hg9 mi
5:00 AM69 °FThunderstorms. Overcast.3 mph86%30.20 "Hg12 mi
4:00 AM69 °FThunderstorms. Overcast.2 mph86%30.17 "Hg9 mi
Weather by CustomWeather, © 2015

See weather overviewHow to use our weather pages